EW4496 Weather Reports


time (UTC)temp
C
wind
direction
speed
KPH
gust
KPH
rain 1hr
cm
rain 24hr
cm
rain mn
cm
humidity
%
barometer
mb
20260831110032 15 317 0.0 0.0 0.00 0.00 0.00 78 1010.0
20260831104532 15 333 0.0 4.8 0.00 0.00 0.00 76 1010.0
20260831103111 16 309 0.0 9.7 0.00 0.00 0.00 74 1010.0
20260831101512 16 347 1.6 8.0 0.00 0.00 0.00 73 1009.9
20260831100127 16 296 0.0 11.3 0.00 0.00 0.00 71 1009.8
20260831094611 16 263 1.6 9.7 0.00 0.00 0.00 71 1009.8
20260831093133 15 258 0.0 0.0 0.00 0.00 0.00 73 1009.8
20260831091611 16 258 0.0 0.0 0.00 0.00 0.00 73 1009.9
20260831090138 16 258 0.0 0.0 0.00 0.00 0.00 72 1009.8
20260831084610 16 258 0.0 0.0 0.00 0.00 0.00 72 1009.8
20260831083114 16 259 0.0 0.0 0.00 0.00 0.00 72 1009.9
20260831081611 17 253 0.0 0.0 0.00 0.00 0.00 69 1009.9
20260831080130 17 252 0.0 0.0 0.00 0.00 0.00 68 1009.9
20260831074613 17 253 0.0 0.0 0.00 0.00 0.00 67 1010.0
20260831073114 17 291 0.0 4.8 0.00 0.00 0.00 66 1009.9
20260831071614 17 278 0.0 4.8 0.00 0.00 0.00 66 1009.9
20260831070040 18 235 0.0 3.2 0.00 0.00 0.00 64 1009.8
20260831064555 18 231 1.6 8.0 0.00 0.00 0.00 64 1009.8
20260831063109 18 247 3.2 8.0 0.00 0.00 0.00 63 1009.8
20260831061555 18 223 0.0 4.8 0.00 0.00 0.00 64 1010.0
20260831060058 19 267 0.0 4.8 0.00 0.00 0.00 63 1010.0
20260831054555 20 262 0.0 3.2 0.00 0.00 0.00 62 1009.9
20260831053126 20 245 0.0 4.8 0.00 0.00 0.00 60 1009.9
20260831051554 20 261 0.0 0.0 0.00 0.00 0.00 60 1009.9
20260831050057 20 298 0.0 0.0 0.00 0.00 0.00 58 1009.8
20260831044640 21 307 0.0 1.6 0.00 0.00 0.00 56 1009.7
20260831043056 21 4 0.0 0.0 0.00 0.00 0.00 54 1009.6
20260831041550 22 360 0.0 1.6 0.00 0.00 0.00 52 1009.5
20260831040050 23 328 0.0 6.4 0.00 0.00 0.00 46 1009.3
20260831034549 23 337 0.0 3.2 0.00 0.00 0.00 42 1009.1
20260831033105 24 338 0.0 8.0 0.00 0.00 0.00 42 1009.0
20260831031552 25 7 0.0 9.7 0.00 0.00 0.00 40 1008.8
20260831030051 26 330 0.0 4.8 0.00 0.00 0.00 38 1008.7
20260831024550 27 308 0.0 4.8 0.00 0.00 0.00 34 1008.7
20260831023055 28 340 0.0 6.4 0.00 0.00 0.00 33 1008.6
20260831021515 30 338 0.0 6.4 0.00 0.00 0.00 29 1008.5
20260831020009 31 347 0.0 11.3 0.00 0.00 0.00 29 1008.5
20260831014524 31 350 3.2 9.7 0.00 0.00 0.00 29 1008.5
20260831013024 32 10 1.6 9.7 0.00 0.00 0.00 29 1008.5
20260831011527 32 314 0.0 6.4 0.00 0.00 0.00 26 1008.5
20260831010035 33 310 0.0 8.0 0.00 0.00 0.00 24 1008.6
20260831004524 33 298 0.0 6.4 0.00 0.00 0.00 24 1008.6
20260831003024 33 344 0.0 6.4 0.00 0.00 0.00 23 1008.6
20260831001525 33 262 0.0 4.8 0.00 0.00 0.00 24 1008.7
20260831000034 33 278 0.0 8.0 0.00 0.00 0.00 25 1008.9
20260830234538 32 345 0.0 6.4 0.00 0.00 0.00 25 1008.9
20260830233041 32 318 0.0 9.7 0.00 0.00 0.00 25 1009.1
20260830231539 32 6 1.6 11.3 0.00 0.00 0.00 26 1009.3
20260830230038 32 319 0.0 11.3 0.00 0.00 0.00 25 1009.4
20260830224538 32 349 1.6 9.7 0.00 0.00 0.00 27 1009.6
20260830223038 32 6 0.0 11.3 0.00 0.00 0.00 26 1009.8
20260830221538 32 232 0.0 6.4 0.00 0.00 0.00 29 1010.0
20260830220039 31 251 0.0 9.7 0.00 0.00 0.00 30 1010.2
20260830214538 31 229 3.2 9.7 0.00 0.00 0.00 28 1010.4
20260830213052 31 321 0.0 9.7 0.00 0.00 0.00 33 1010.7
20260830211539 30 353 0.0 11.3 0.00 0.00 0.00 36 1010.9
20260830210038 30 350 0.0 9.7 0.00 0.00 0.00 36 1011.0
20260830204542 30 13 0.0 11.3 0.00 0.00 0.00 35 1011.2
20260830203013 29 3 0.0 6.4 0.00 0.00 0.00 37 1011.3
20260830201509 28 325 0.0 8.0 0.00 0.00 0.00 39 1011.4
20260830200008 28 333 0.0 9.7 0.00 0.00 0.00 41 1011.5
20260830194507 27 35 1.6 9.7 0.00 0.00 0.00 41 1011.6
20260830193015 27 9 0.0 8.0 0.00 0.00 0.00 42 1011.7
20260830191523 26 329 1.6 8.0 0.00 0.00 0.00 43 1012.0
20260830190007 25 307 0.0 4.8 0.00 0.00 0.00 46 1012.2
20260830184516 25 282 0.0 8.0 0.00 0.00 0.00 48 1012.3
20260830183007 24 350 0.0 3.2 0.00 0.00 0.00 48 1012.4
20260830181515 23 214 0.0 4.8 0.00 0.00 0.00 51 1012.5
20260830180054 23 261 0.0 4.8 0.00 0.00 0.00 51 1012.6
20260830174553 23 274 0.0 3.2 0.00 0.00 0.00 53 1012.6
20260830173052 22 256 0.0 0.0 0.00 0.00 0.00 56 1012.7
20260830171552 22 254 0.0 4.8 0.00 0.00 0.00 56 1012.6
20260830170052 22 240 0.0 1.6 0.00 0.00 0.00 57 1012.6
20260830164552 21 319 0.0 3.2 0.00 0.00 0.00 59 1012.6
20260830163051 21 249 0.0 1.6 0.00 0.00 0.00 60 1012.6
20260830161622 20 328 0.0 1.6 0.00 0.00 0.00 63 1012.6
20260830160106 19 245 0.0 3.2 0.00 0.00 0.00 63 1012.7
20260830154606 18 317 0.0 1.6 0.00 0.00 0.00 65 1012.7
20260830153020 18 265 0.0 6.4 0.00 0.00 0.00 65 1012.6
20260830151521 18 221 0.0 6.4 0.00 0.00 0.00 65 1012.6
20260830150035 17 240 0.0 0.0 0.00 0.00 0.00 67 1012.7
20260830144520 17 298 0.0 0.0 0.00 0.00 0.00 69 1012.6
20260830143021 16 333 0.0 0.0 0.00 0.00 0.00 68 1012.4
20260830141521 16 333 0.0 0.0 0.00 0.00 0.00 72 1012.3
20260830140020 14 333 0.0 0.0 0.00 0.00 0.00 76 1012.1
20260830134607 13 333 0.0 0.0 0.00 0.00 0.00 77 1011.9
20260830133105 13 291 0.0 0.0 0.00 0.00 0.00 78 1011.8
20260830131605 13 291 0.0 0.0 0.00 0.00 0.00 77 1011.7
20260830130111 13 290 0.0 0.0 0.00 0.00 0.00 77 1011.6
20260830124608 13 290 0.0 0.0 0.00 0.00 0.00 77 1011.5
20260830123105 13 290 0.0 0.0 0.00 0.00 0.00 76 1011.3
20260830121605 13 290 0.0 0.0 0.00 0.00 0.00 75 1011.3
20260830120107 14 290 0.0 0.0 0.00 0.00 0.00 74 1011.4
20260830114617 15 290 0.0 0.0 0.00 0.00 0.00 72 1011.4
20260830113105 14 290 0.0 0.0 0.00 0.00 0.00 74 1011.4
20260830111505 14 290 0.0 0.0 0.00 0.00 0.00 72 1011.4